period_start,C,m1,H,J0,J1,J2,J3,J4,J5,JA,JB,JC,JD,JJ,JK,JN,#
2018-04-25 00:02:52,0.12,5.23,0.00,25.36,29.08,31.96,13.82,49.59,1012.22,2016.86,1865.02,1978.24,2245.66,600.04,588.84,38.42,0000 0000 0000 0000 000000
2018-04-25 00:07:54,0.13,5.23,0.00,25.32,29.07,31.96,13.85,49.58,1012.22,2016.86,1863.85,1977.36,2244.51,600.38,589.31,38.47,0000 0000 0000 0000 000000
2018-04-25 00:12:55,0.14,5.24,0.00,25.23,29.07,31.96,13.81,49.61,1012.23,2016.92,1862.68,1976.45,2243.47,599.86,588.89,38.52,0000 0000 0000 0000 000000
2018-04-25 00:17:56,0.11,5.24,0.00,25.27,29.07,31.94,13.82,49.60,1012.22,2016.93,1861.52,1975.67,2242.44,599.97,588.92,38.57,0000 0000 0000 0000 000000
2018-04-25 00:22:57,0.11,5.25,0.00,25.28,29.07,31.95,13.86,49.58,1012.23,2016.96,1860.37,1974.74,2241.37,600.10,589.02,38.62,0000 0000 0000 0000 000000
2018-04-25 00:27:58,0.12,5.26,0.00,25.25,29.06,31.92,13.74,49.49,1012.24,2016.96,1859.07,1973.83,2240.25,599.75,588.78,38.67,0000 0000 0000 0000 000000
2018-04-25 00:33:00,0.13,5.27,0.00,25.21,29.05,31.91,13.82,49.63,1012.25,2016.95,1857.77,1972.83,2239.18,600.17,589.30,38.72,0000 0000 0000 0000 000000
2018-04-25 00:38:01,0.12,5.27,0.00,25.24,29.05,31.93,13.85,49.63,1012.23,2016.95,1856.55,1971.93,2238.19,600.04,589.00,38.77,0000 0000 0000 0000 000000
2018-04-25 00:43:02,0.13,5.28,0.00,25.22,29.04,31.90,13.82,49.77,1012.22,2016.93,1855.32,1970.95,2236.99,599.90,588.94,38.83,0000 0000 0000 0000 000000
2018-04-25 00:48:04,0.13,5.29,0.00,25.18,29.02,31.89,13.80,49.89,1012.22,2016.93,1854.07,1969.96,2235.79,600.02,589.23,38.88,0000 0000 0000 0000 000000
2018-04-25 00:53:05,0.16,5.29,0.00,25.21,29.02,31.88,13.76,49.76,1012.23,2016.97,1852.67,1968.96,2234.60,599.86,588.92,38.93,0000 0000 0000 0000 000000
2018-04-25 00:58:07,0.12,5.30,0.00,25.15,29.00,31.87,13.75,49.71,1012.62,2016.98,1851.42,1968.03,2233.48,600.08,589.48,38.98,0000 0000 0000 0000 000000
2018-04-25 01:03:08,0.13,5.31,0.00,25.11,29.00,31.88,13.76,49.78,1012.71,2016.99,1850.11,1967.10,2232.35,600.00,589.56,39.03,0000 0000 0000 0000 000000
2018-04-25 01:08:09,0.14,5.31,0.00,25.16,28.97,31.84,13.91,49.62,1012.71,2016.99,1848.76,1966.11,2231.20,600.40,589.98,39.08,0000 0000 0000 0000 000000
2018-04-25 01:13:11,0.13,5.32,0.00,25.14,28.96,31.80,13.87,49.66,1012.71,2016.99,1847.46,1965.14,2230.02,600.24,589.58,39.13,0000 0000 0000 0000 000000
2018-04-25 01:18:12,0.13,5.33,0.00,25.11,28.95,31.81,13.76,49.58,1012.76,2016.99,1846.16,1964.20,2228.91,599.81,589.38,39.18,0000 0000 0000 0000 000000
2018-04-25 01:23:13,0.14,5.33,0.00,25.15,28.94,31.79,13.75,49.47,1012.95,2016.99,1844.76,1963.28,2227.77,599.67,589.37,39.23,0000 0000 0000 0000 000000
2018-04-25 01:28:14,0.14,5.34,0.00,25.15,28.92,31.76,13.81,49.58,1013.10,2016.99,1843.44,1962.26,2226.58,599.97,589.69,39.28,0000 0000 0000 0000 000000
2018-04-25 01:33:16,0.13,5.35,0.00,25.11,28.92,31.75,13.67,49.63,1013.20,2016.99,1842.04,1961.36,2225.45,599.52,589.36,39.33,0000 0000 0000 0000 000000
2018-04-25 01:38:18,0.14,5.36,0.00,25.16,28.90,31.77,13.79,49.68,1013.20,2017.00,1840.66,1960.40,2224.33,599.80,589.47,39.38,0000 0000 0000 0000 000000
2018-04-25 01:43:19,0.13,5.36,0.00,25.13,28.90,31.77,13.81,49.73,1013.20,2017.01,1839.33,1959.45,2223.08,600.05,589.80,39.43,0000 0000 0000 0000 000000
2018-04-25 01:48:20,0.17,5.37,0.00,25.08,28.87,31.79,13.86,49.63,1013.20,2017.01,1837.73,1958.39,2221.75,599.95,589.68,39.48,0000 0000 0000 0000 000000
2018-04-25 01:53:21,0.15,5.38,0.00,25.17,28.86,31.88,13.82,49.59,1013.21,2017.02,1836.07,1957.32,2220.45,599.77,589.50,39.53,0000 0000 0000 0000 000000
2018-04-25 01:58:22,0.17,5.39,0.00,25.16,28.84,31.87,13.86,49.53,1013.23,2017.11,1834.38,1956.29,2219.13,600.23,590.04,39.58,0000 0000 0000 0000 000000
2018-04-25 02:03:24,0.20,5.40,0.00,25.10,28.81,31.80,13.83,49.50,1013.27,2017.39,1832.79,1955.24,2217.80,599.77,589.71,39.63,0000 0000 0000 0000 000000
2018-04-25 02:08:25,0.19,5.41,0.00,25.05,28.78,31.80,13.81,49.49,1013.29,2017.82,1831.44,1954.27,2216.66,599.95,589.98,39.69,0000 0000 0000 0000 000000
2018-04-25 02:13:26,0.13,5.42,0.00,24.99,28.74,31.74,13.86,49.61,1013.48,2017.96,1830.16,1953.35,2215.59,599.88,590.19,39.74,0000 0000 0000 0000 000000
2018-04-25 02:18:28,0.14,5.42,0.00,24.96,28.71,31.67,13.77,49.66,1013.33,2017.99,1828.85,1952.49,2214.48,599.97,590.17,39.79,0000 0000 0000 0000 000000
2018-04-25 02:23:29,0.12,5.43,0.00,24.96,28.66,31.62,13.88,49.68,1013.27,2017.99,1827.70,1951.64,2213.42,600.09,590.20,39.84,0000 0000 0000 0000 000000
2018-04-25 02:28:30,0.12,5.44,0.00,24.94,28.63,31.52,13.86,49.77,1013.41,2018.00,1826.53,1950.72,2212.46,600.04,590.23,39.89,0000 0000 0000 0000 000000
2018-04-25 02:33:32,0.11,5.44,0.00,24.93,28.59,31.45,13.81,49.69,1013.45,2018.00,1825.46,1949.85,2211.44,599.97,590.27,39.94,0000 0000 0000 0000 000000
2018-04-25 02:38:33,0.12,5.45,0.00,24.90,28.55,31.37,13.84,49.72,1013.56,2018.06,1824.26,1949.00,2210.41,600.04,590.59,39.99,0000 0000 0000 0000 000000
2018-04-25 02:43:34,0.20,5.46,0.00,24.89,28.51,31.31,13.88,49.80,1013.63,2018.42,1822.91,1948.14,2209.37,600.19,590.66,40.04,0000 0000 0000 0000 000000
2018-04-25 02:48:36,0.18,5.47,0.00,24.90,28.47,31.28,13.95,49.75,1013.65,2018.93,1821.63,1947.33,2208.41,600.19,590.73,40.09,0000 0000 0000 0000 000000
2018-04-25 02:53:38,0.13,5.47,0.00,24.89,28.43,31.23,13.90,49.85,1013.68,2018.99,1820.31,1946.47,2207.25,600.14,590.64,40.14,0000 0000 0000 0000 000000
2018-04-25 02:58:39,0.14,5.48,0.00,24.87,28.40,31.19,13.87,49.71,1013.69,2018.99,1818.88,1945.53,2206.09,600.07,590.59,40.19,0000 0000 0000 0000 000000
2018-04-25 03:03:40,0.15,5.49,0.00,24.89,28.36,31.16,13.82,49.74,1013.69,2019.00,1817.56,1944.57,2204.92,599.91,590.50,40.24,0000 0000 0000 0000 000000
2018-04-25 03:08:41,0.14,5.50,0.00,24.99,28.33,31.15,13.77,49.77,1013.69,2019.00,1816.05,1943.58,2203.73,599.83,590.26,40.29,0000 0000 0000 0000 000000
2018-04-25 03:13:42,0.15,5.50,0.00,25.05,28.30,31.15,13.83,49.70,1013.69,2019.04,1814.75,1942.61,2202.57,599.67,589.89,40.34,0000 0000 0000 0000 000000
2018-04-25 03:18:44,0.17,5.51,0.00,25.10,28.28,31.14,13.81,49.64,1013.70,2019.21,1813.40,1941.68,2201.46,600.21,590.28,40.39,0000 0000 0000 0000 000000
2018-04-25 03:23:45,0.17,5.52,0.00,25.13,28.26,31.14,13.86,49.71,1013.71,2019.59,1811.94,1940.65,2200.28,599.97,590.15,40.44,0000 0000 0000 0000 000000
2018-04-25 03:28:46,0.19,5.53,0.00,25.03,28.24,31.15,13.85,49.88,1013.71,2019.81,1810.47,1939.64,2198.90,599.90,590.23,40.49,0000 0000 0000 0000 000000
2018-04-25 03:33:47,0.17,5.54,0.00,24.98,28.21,31.15,13.83,49.73,1013.69,2019.94,1808.84,1938.60,2197.68,600.10,590.44,40.54,0000 0000 0000 0000 000000
2018-04-25 03:38:48,0.15,5.55,0.00,24.98,28.20,31.11,13.69,49.64,1013.74,2019.99,1807.38,1937.55,2196.41,599.63,590.20,40.59,0000 0000 0000 0000 000000
2018-04-25 03:43:50,0.14,5.56,0.00,24.96,28.17,31.02,13.90,49.78,1014.02,2019.99,1805.85,1936.56,2195.21,600.32,590.85,40.65,0000 0000 0000 0000 000000
2018-04-25 03:48:51,0.15,5.56,0.00,24.99,28.16,30.95,13.81,49.76,1014.16,2019.99,1804.43,1935.57,2193.96,599.75,590.38,40.70,0000 0000 0000 0000 000000
2018-04-25 03:53:52,0.17,5.57,0.00,25.01,28.15,30.91,13.85,49.61,1014.17,2020.00,1802.91,1934.51,2192.65,599.95,590.54,40.75,0000 0000 0000 0000 000000
2018-04-25 03:58:54,0.15,5.58,0.00,25.01,28.13,30.91,13.87,49.67,1014.20,2020.01,1801.41,1933.48,2191.44,599.87,590.57,40.80,0000 0000 0000 0000 000000
2018-04-25 04:03:55,0.14,5.59,0.00,25.02,28.12,30.86,13.86,49.66,1014.18,2020.01,1800.03,1932.42,2190.21,600.03,590.65,40.85,0000 0000 0000 0000 000000
2018-04-25 04:08:56,0.16,5.59,0.00,25.04,28.10,30.82,13.79,49.61,1014.20,2020.04,1798.63,1931.48,2188.97,599.96,590.57,40.90,0000 0000 0000 0000 000000
2018-04-25 04:13:58,0.13,5.60,0.00,25.04,28.10,30.81,13.82,49.67,1014.25,2020.04,1797.42,1930.47,2187.84,600.03,590.64,40.95,0000 0000 0000 0000 000000
2018-04-25 04:18:59,0.14,5.61,0.00,25.07,28.09,30.80,13.75,49.69,1014.55,2020.03,1796.05,1929.47,2186.68,599.90,590.61,41.00,0000 0000 0000 0000 000000
2018-04-25 04:24:01,0.16,5.62,0.00,25.10,28.07,30.79,13.85,49.63,1014.65,2020.08,1794.61,1928.53,2185.51,599.92,590.65,41.05,0000 0000 0000 0000 000000
2018-04-25 04:29:02,0.13,5.62,0.00,25.09,28.07,30.80,13.79,49.73,1014.65,2020.19,1793.31,1927.60,2184.36,599.83,590.54,41.10,0000 0000 0000 0000 000000
2018-04-25 04:34:03,0.16,5.63,0.00,25.12,28.07,30.81,13.85,49.74,1014.66,2020.36,1792.02,1926.65,2183.22,599.74,590.40,41.15,0000 0000 0000 0000 000000
2018-04-25 04:39:04,0.12,5.64,0.00,25.15,28.07,30.80,13.83,49.82,1014.66,2020.30,1790.73,1925.69,2182.06,600.18,590.71,41.20,0000 0000 0000 0000 000000
2018-04-25 04:44:06,0.15,5.65,0.00,25.12,28.07,30.80,13.84,49.79,1014.67,2020.25,1789.36,1924.75,2180.89,600.21,590.87,41.25,0000 0000 0000 0000 000000
2018-04-25 04:49:07,0.13,5.65,0.00,25.16,28.06,30.80,13.85,49.65,1014.69,2020.24,1787.97,1923.83,2179.73,600.07,590.60,41.30,0000 0000 0000 0000 000000
2018-04-25 04:54:08,0.18,5.66,0.00,25.17,28.06,30.81,13.85,49.75,1014.87,2020.41,1786.63,1922.91,2178.63,600.10,590.79,41.35,0000 0000 0000 0000 000000
2018-04-25 04:59:09,0.12,5.67,0.00,25.16,28.06,30.81,13.83,49.66,1015.07,2020.29,1785.12,1921.91,2177.41,600.02,590.72,41.40,0000 0000 0000 0000 000000
2018-04-25 05:04:11,0.13,5.68,0.00,25.19,28.06,30.82,13.83,49.63,1015.14,2020.26,1783.76,1920.94,2176.25,600.34,591.09,41.45,0000 0000 0000 0000 000000
2018-04-25 05:09:12,0.14,5.68,0.00,25.19,28.07,30.82,13.82,49.73,1015.13,2020.24,1782.48,1920.06,2175.13,600.03,590.84,41.51,0000 0000 0000 0000 000000
2018-04-25 05:14:13,0.13,5.69,0.00,25.18,28.07,30.83,13.86,49.80,1015.08,2020.25,1781.05,1919.22,2174.08,600.15,590.96,41.56,0000 0000 0000 0000 000000
2018-04-25 05:19:15,0.12,5.70,0.00,25.20,28.07,30.84,13.87,49.74,1015.14,2020.12,1779.72,1918.28,2172.96,599.89,590.75,41.61,0000 0000 0000 0000 000000
2018-04-25 05:24:16,0.18,5.71,0.00,25.23,28.07,30.85,13.78,49.74,1015.15,2020.19,1778.22,1917.23,2171.70,600.01,590.77,41.66,0000 0000 0000 0000 000000
2018-04-25 05:29:17,0.14,5.71,0.00,25.23,28.07,30.86,13.75,49.71,1015.15,2020.07,1776.70,1916.25,2170.45,599.87,590.62,41.71,0000 0000 0000 0000 000000
2018-04-25 05:34:19,0.14,5.72,0.00,25.22,28.07,30.86,13.76,49.72,1015.18,2020.05,1775.28,1915.31,2169.29,599.69,590.54,41.76,0000 0000 0000 0000 000000
2018-04-25 05:39:20,0.13,5.73,0.00,25.24,28.07,30.86,13.81,49.82,1015.17,2020.05,1773.99,1914.42,2168.23,599.99,590.70,41.81,0000 0000 0000 0000 000000
2018-04-25 05:44:21,0.14,5.74,0.00,25.22,28.09,30.87,13.78,49.80,1015.25,2020.05,1772.71,1913.59,2167.22,600.02,590.79,41.86,0000 0000 0000 0000 000000
2018-04-25 05:49:22,0.12,5.74,0.00,25.21,28.09,30.89,13.78,49.77,1015.43,2020.04,1771.38,1912.73,2166.07,599.98,590.91,41.91,0000 0000 0000 0000 000000
2018-04-25 05:54:24,0.11,5.75,0.00,25.24,28.10,30.88,13.77,49.83,1015.61,2020.01,1770.06,1911.88,2165.01,599.94,590.90,41.96,0000 0000 0000 0000 000000
2018-04-25 05:59:25,0.14,5.76,0.00,25.27,28.10,30.88,13.73,49.77,1015.64,2020.02,1768.74,1911.02,2163.99,599.64,590.60,42.01,0000 0000 0000 0000 000000
2018-04-25 06:04:26,0.13,5.76,0.00,25.25,28.10,30.87,13.81,49.75,1015.64,2020.02,1767.60,1910.13,2162.92,600.22,591.27,42.06,0000 0000 0000 0000 000000
2018-04-25 06:09:28,0.13,5.77,0.00,25.25,28.10,30.91,13.81,49.76,1015.64,2020.01,1766.27,1909.36,2161.89,600.10,591.11,42.11,0000 0000 0000 0000 000000
2018-04-25 06:14:29,0.13,5.78,0.00,25.11,28.10,30.90,13.82,49.85,1015.65,2020.00,1764.97,1908.57,2160.87,600.01,591.21,42.16,0000 0000 0000 0000 000000
2018-04-25 06:19:30,0.12,5.78,0.00,25.10,28.10,30.91,13.86,49.86,1015.65,2020.01,1763.62,1907.79,2159.86,600.23,591.60,42.21,0000 0000 0000 0000 000000
2018-04-25 06:24:32,0.11,5.79,0.00,25.07,28.10,30.91,13.82,49.78,1015.65,2020.01,1762.34,1906.96,2158.88,600.02,591.41,42.26,0000 0000 0000 0000 000000
2018-04-25 06:29:33,0.13,5.80,0.00,25.02,28.10,30.91,13.83,49.95,1015.79,2020.01,1761.10,1906.08,2157.84,600.00,591.53,42.31,0000 0000 0000 0000 000000
2018-04-25 06:34:34,0.14,5.80,0.00,25.06,28.09,30.92,13.90,49.90,1016.03,2020.01,1759.84,1905.24,2156.80,600.01,591.61,42.37,0000 0000 0000 0000 000000
2018-04-25 06:39:35,0.13,5.81,0.00,25.18,28.08,30.99,13.85,49.73,1016.10,2020.01,1758.65,1904.54,2155.84,600.27,591.65,42.42,0000 0000 0000 0000 000000
2018-04-25 06:44:37,0.09,5.82,0.00,25.20,28.08,30.94,13.76,49.78,1016.12,2020.01,1757.66,1903.87,2154.91,599.73,591.15,42.47,0000 0000 0000 0000 000000
2018-04-25 06:49:38,0.11,5.82,0.00,25.22,28.10,30.89,13.80,49.76,1016.12,2020.01,1756.64,1903.06,2154.01,599.82,591.32,42.52,0000 0000 0000 0000 000000
2018-04-25 06:54:39,0.14,5.83,0.00,25.29,28.10,30.86,13.83,49.68,1016.13,2020.01,1755.43,1902.18,2153.04,599.93,591.10,42.57,0000 0000 0000 0000 000000
2018-04-25 06:59:41,0.12,5.83,0.00,25.41,28.12,30.87,13.84,49.78,1016.15,2020.00,1754.28,1901.39,2152.04,600.21,591.16,42.62,0000 0000 0000 0000 000000
2018-04-25 07:04:42,0.13,5.84,0.00,25.43,28.13,30.90,13.77,49.91,1016.22,2020.00,1753.06,1900.57,2150.97,599.57,590.55,42.67,0000 0000 0000 0000 000000
2018-04-25 07:09:44,0.12,5.85,0.00,25.41,28.16,30.94,13.85,49.80,1016.47,2020.00,1751.81,1899.79,2149.95,600.20,591.33,42.72,0000 0000 0000 0000 000000
2018-04-25 07:14:45,0.11,5.85,0.00,25.50,28.17,30.99,13.81,49.73,1016.57,2019.99,1750.60,1899.01,2148.97,599.91,590.95,42.77,0000 0000 0000 0000 000000
2018-04-25 07:19:46,0.14,5.86,0.00,25.43,28.20,31.04,13.90,49.54,1016.62,2019.99,1749.29,1898.11,2147.91,600.34,591.54,42.82,0000 0000 0000 0000 000000
2018-04-25 07:24:47,0.12,5.87,0.00,25.39,28.20,31.11,13.82,49.64,1016.62,2019.95,1747.97,1897.28,2146.92,600.01,591.27,42.87,0000 0000 0000 0000 000000
2018-04-25 07:29:49,0.10,5.87,0.00,25.37,28.22,31.12,13.85,49.72,1016.64,2019.92,1746.96,1896.71,2146.04,599.95,591.34,42.92,0000 0000 0000 0000 000000
2018-04-25 07:34:50,0.08,5.88,0.00,25.30,28.22,31.12,13.91,49.77,1016.66,2019.85,1745.98,1896.01,2145.21,600.30,591.70,42.97,0000 0000 0000 0000 000000
2018-04-25 07:39:51,0.08,5.88,0.00,25.28,28.23,31.10,13.86,49.87,1016.66,2019.58,1745.00,1895.31,2144.42,599.95,591.42,43.02,0000 0000 0000 0000 000000
2018-04-25 07:44:53,0.05,5.89,0.00,25.26,28.24,31.08,13.85,49.83,1016.83,2019.41,1744.12,1894.88,2143.77,599.90,591.56,43.07,0000 0000 0000 0000 000000
2018-04-25 07:49:54,0.08,5.89,0.00,25.22,28.24,31.08,13.93,49.76,1016.93,2019.28,1743.33,1894.10,2143.02,600.28,591.94,43.12,0000 0000 0000 0000 000000
2018-04-25 07:54:55,0.10,5.89,0.00,25.20,28.24,31.09,13.81,49.77,1016.93,2019.45,1742.62,1893.83,2142.41,599.72,591.56,43.17,0000 0000 0000 0000 000000
2018-04-25 07:59:57,0.05,5.90,0.00,25.20,28.22,31.06,13.87,49.83,1017.06,2019.16,1741.87,1893.05,2141.88,599.84,591.80,43.22,0000 0000 0000 0000 000000
2018-04-25 08:04:58,0.06,5.90,0.00,25.14,28.22,31.05,13.87,49.89,1017.10,2019.14,1741.10,1892.93,2141.13,600.25,592.34,43.27,0000 0000 0000 0000 000000
2018-04-25 08:09:59,0.06,5.90,0.00,25.12,28.22,31.05,13.98,49.90,1017.10,2019.13,1740.92,1892.30,2140.97,599.96,592.09,43.33,0000 0000 0000 0000 000000
2018-04-25 08:15:00,0.06,5.91,0.00,25.09,28.21,31.04,13.91,49.88,1017.10,2019.10,1740.12,1892.01,2140.23,599.83,591.95,43.38,0000 0000 0000 0000 000000
2018-04-25 08:20:01,0.03,5.91,0.00,25.06,28.20,31.02,13.90,49.96,1017.12,2019.08,1739.78,1891.86,2139.98,600.30,592.50,43.43,0000 0000 0000 0000 000000
2018-04-25 08:25:03,0.09,5.91,0.00,25.04,28.20,31.00,13.88,49.98,1017.13,2019.13,1739.09,1891.18,2139.49,599.88,592.10,43.48,0000 0000 0000 0000 000000
2018-04-25 08:30:04,0.03,5.91,0.00,25.04,28.17,31.02,13.86,49.98,1017.13,2019.12,1738.73,1891.00,2139.01,600.05,592.36,43.53,0000 0000 0000 0000 000000
2018-04-25 08:35:05,0.06,5.92,0.00,25.02,28.17,31.02,13.89,49.91,1017.20,2019.27,1738.04,1890.78,2138.79,600.15,592.48,43.58,0000 0000 0000 0000 000000
2018-04-25 08:40:07,0.10,5.92,0.00,25.00,28.16,31.03,13.77,49.91,1017.53,2019.41,1737.74,1890.07,2138.08,599.58,592.08,43.63,0000 0000 0000 0000 000000
2018-04-25 08:45:08,0.05,5.93,0.00,25.00,28.15,30.98,13.88,49.92,1017.59,2019.76,1737.07,1890.00,2137.99,599.96,592.60,43.68,0000 0000 0000 0000 000000
2018-04-25 08:50:09,0.04,5.93,0.00,24.96,28.13,30.96,13.91,49.87,1017.59,2019.93,1736.96,1889.96,2137.48,600.05,592.77,43.73,0000 0000 0000 0000 000000
2018-04-25 08:55:11,0.09,5.93,0.00,24.94,28.12,30.98,13.88,49.85,1017.61,2019.97,1736.26,1889.35,2137.02,599.99,592.58,43.78,0000 0000 0000 0000 000000
2018-04-25 09:00:12,0.01,5.94,0.00,24.94,28.10,31.00,13.83,49.83,1017.64,2019.98,1736.00,1889.01,2136.99,599.87,592.61,43.83,0000 0000 0000 0000 000000
2018-04-25 09:05:13,0.04,5.94,0.00,24.91,28.09,30.92,13.84,49.77,1017.64,2019.98,1735.74,1889.00,2136.55,599.72,592.53,43.88,0000 0000 0000 0000 000000
2018-04-25 09:10:15,0.04,5.94,0.00,24.89,28.07,30.93,13.83,49.82,1017.65,2019.99,1735.07,1888.90,2136.03,600.32,593.17,43.93,0000 0000 0000 0000 000000
2018-04-25 09:15:16,0.05,5.94,0.00,24.89,28.06,30.97,13.91,49.86,1017.68,2019.99,1734.93,1888.19,2135.98,600.05,592.89,43.98,0000 0000 0000 0000 000000
2018-04-25 09:20:17,0.06,5.95,0.00,24.85,28.05,30.98,13.80,49.88,1017.86,2019.99,1734.15,1888.00,2135.50,599.82,592.87,44.03,0000 0000 0000 0000 000000
2018-04-25 09:25:19,0.01,5.95,0.00,24.86,28.02,30.93,13.91,49.93,1018.05,2019.99,1733.99,1888.00,2135.03,599.96,593.07,44.08,0000 0000 0000 0000 000000
2018-04-25 09:30:20,0.05,5.95,0.00,24.84,28.01,30.93,13.91,49.92,1018.08,2020.00,1733.56,1887.78,2134.96,600.00,593.24,44.13,0000 0000 0000 0000 000000
2018-04-25 09:35:21,0.08,5.95,0.00,24.85,28.00,31.01,13.81,50.00,1018.07,2020.00,1733.01,1887.09,2134.34,600.03,593.11,44.19,0000 0000 0000 0000 000000
2018-04-25 09:40:23,0.01,5.95,0.00,24.86,27.98,30.91,13.88,49.96,1018.07,2020.01,1732.94,1886.99,2134.01,599.93,593.06,44.24,0000 0000 0000 0000 000000
2018-04-25 09:45:24,0.05,5.96,0.00,24.88,27.97,30.75,13.88,49.98,1018.08,2020.04,1732.27,1886.87,2133.97,599.97,593.11,44.29,0000 0000 0000 0000 000000
2018-04-25 09:50:25,0.08,5.96,0.00,24.94,27.97,30.79,13.86,50.03,1018.08,2020.07,1732.00,1886.13,2133.30,599.55,592.57,44.34,0000 0000 0000 0000 000000
2018-04-25 09:55:27,0.02,5.96,0.00,25.04,27.98,30.76,13.84,49.92,1018.08,2020.03,1731.73,1885.99,2133.01,599.79,592.66,44.39,0000 0000 0000 0000 000000
2018-04-25 10:00:28,0.06,5.96,0.00,25.14,28.00,30.75,13.83,49.84,1018.09,2020.03,1731.04,1885.78,2132.75,599.69,592.53,44.44,0000 0000 0000 0000 000000
2018-04-25 10:05:29,0.06,5.97,0.00,25.19,28.02,30.79,13.82,50.08,1018.10,2020.01,1730.75,1885.07,2132.04,599.83,592.42,44.49,0000 0000 0000 0000 000000
2018-04-25 10:10:31,0.04,5.97,0.00,25.24,28.04,30.84,13.81,49.88,1018.13,2020.00,1730.07,1884.98,2131.75,600.14,592.54,44.54,0000 0000 0000 0000 000000
2018-04-25 10:15:32,0.08,5.97,0.00,25.30,28.08,30.89,13.82,49.88,1018.43,2020.00,1729.77,1884.32,2131.04,600.05,592.55,44.59,0000 0000 0000 0000 000000
2018-04-25 10:20:33,0.04,5.98,0.00,25.32,28.11,30.96,13.79,49.85,1018.53,2020.00,1729.07,1884.00,2130.80,599.96,592.38,44.64,0000 0000 0000 0000 000000
2018-04-25 10:25:34,0.06,5.98,0.00,25.37,28.15,31.03,13.90,49.90,1018.57,2019.95,1728.81,1883.60,2130.05,600.12,592.62,44.69,0000 0000 0000 0000 000000
2018-04-25 10:30:36,0.04,5.98,0.00,25.41,28.19,31.10,13.81,49.79,1018.57,2019.78,1728.06,1883.02,2129.62,599.83,592.20,44.74,0000 0000 0000 0000 000000
2018-04-25 10:35:37,-0.03,5.98,0.00,25.42,28.23,31.16,13.85,49.63,1018.57,2019.21,1727.75,1882.77,2129.02,600.22,592.55,44.79,0000 0000 0000 0000 000000
2018-04-25 10:40:38,0.07,5.98,0.00,25.44,28.27,31.22,13.88,49.69,1018.57,2019.04,1727.05,1882.06,2128.57,600.07,592.33,44.84,0000 0000 0000 0000 000000
2018-04-25 10:45:39,0.01,5.98,0.00,25.46,28.32,31.28,13.85,49.65,1018.57,2019.00,1726.88,1881.91,2128.01,599.93,592.13,44.89,0000 0000 0000 0000 000000
2018-04-25 10:50:40,0.11,5.99,0.00,25.45,28.36,31.34,13.85,49.66,1018.57,2018.99,1726.09,1881.13,2127.45,600.07,592.34,44.94,0000 0000 0000 0000 000000
2018-04-25 10:55:41,0.02,5.99,0.00,25.48,28.41,31.39,13.97,49.74,1018.55,2018.95,1725.72,1880.97,2126.98,600.33,592.52,44.99,0000 0000 0000 0000 000000
2018-04-25 11:00:43,0.05,6.00,0.00,25.49,28.45,31.43,13.91,49.64,1018.55,2018.73,1725.05,1880.30,2126.30,600.25,592.38,45.04,0000 0000 0000 0000 000000
2018-04-25 11:05:44,-0.01,5.99,0.00,25.50,28.49,31.47,13.84,49.68,1018.56,2018.26,1724.65,1879.98,2125.86,600.12,592.31,45.09,0000 0000 0000 0000 000000
2018-04-25 11:10:46,0.07,6.00,0.00,25.50,28.53,31.52,13.89,49.72,1018.57,2018.04,1724.01,1879.26,2125.08,599.96,592.09,45.15,0000 0000 0000 0000 000000
2018-04-25 11:15:47,0.04,6.00,0.00,25.50,28.56,31.55,13.88,49.67,1018.57,2018.00,1723.35,1878.99,2124.87,599.91,592.10,45.20,0000 0000 0000 0000 000000
2018-04-25 11:20:48,0.07,6.00,0.00,25.50,28.60,31.61,13.86,49.76,1018.57,2017.99,1723.00,1878.52,2124.08,599.90,592.10,45.25,0000 0000 0000 0000 000000
2018-04-25 11:25:49,0.03,6.01,0.00,25.51,28.64,31.63,13.82,49.74,1018.57,2017.97,1722.62,1878.01,2123.91,599.90,592.12,45.30,0000 0000 0000 0000 000000
2018-04-25 11:30:51,0.03,6.01,0.00,25.58,28.67,31.67,13.87,49.85,1018.57,2017.83,1722.02,1877.86,2123.14,600.03,592.07,45.35,0000 0000 0000 0000 000000
2018-04-25 11:35:52,0.03,6.01,0.00,25.57,28.71,31.70,13.82,49.73,1018.57,2017.45,1721.59,1877.14,2122.90,600.03,592.08,45.40,0000 0000 0000 0000 000000
2018-04-25 11:40:54,0.01,6.01,0.00,25.55,28.73,31.73,13.90,49.69,1018.60,2017.12,1721.02,1876.99,2122.15,599.94,592.17,45.45,0000 0000 0000 0000 000000
2018-04-25 11:45:55,0.02,6.01,0.00,25.55,28.76,31.78,13.86,49.69,1018.76,2017.01,1720.86,1876.72,2122.00,599.93,592.16,45.50,0000 0000 0000 0000 000000
2018-04-25 11:50:56,0.08,6.01,0.00,25.63,28.79,31.81,13.81,49.67,1018.83,2017.00,1720.14,1876.07,2121.49,599.75,591.88,45.55,0000 0000 0000 0000 000000
2018-04-25 11:55:58,0.01,6.02,0.00,25.78,28.82,31.84,13.90,49.67,1018.78,2016.99,1719.99,1876.00,2121.01,600.23,591.91,45.60,0000 0000 0000 0000 000000
2018-04-25 12:00:59,0.08,6.02,0.00,25.78,28.86,31.85,13.89,49.62,1019.04,2016.98,1719.52,1875.58,2120.74,600.09,591.98,45.65,0000 0000 0000 0000 000000
2018-04-25 12:06:01,0.03,6.02,0.00,25.74,28.88,31.84,13.87,49.63,1019.06,2016.90,1719.02,1875.02,2120.06,600.03,591.91,45.70,0000 0000 0000 0000 000000
2018-04-25 12:11:02,-0.03,6.02,0.00,25.84,28.91,31.88,13.74,49.63,1019.06,2016.37,1718.63,1874.95,2119.87,599.81,591.64,45.75,0000 0000 0000 0000 000000
2018-04-25 12:16:04,0.06,6.02,0.00,25.78,28.93,31.88,13.78,49.77,1019.06,2016.11,1718.03,1874.28,2119.14,599.83,591.89,45.80,0000 0000 0000 0000 000000
2018-04-25 12:21:05,0.01,6.02,0.00,25.73,28.96,31.89,13.96,49.73,1019.06,2016.03,1717.76,1874.00,2118.98,600.21,592.22,45.85,0000 0000 0000 0000 000000
2018-04-25 12:26:07,0.06,6.03,0.00,25.82,28.98,31.90,13.92,49.71,1019.06,2016.00,1717.05,1873.86,2118.33,600.21,592.04,45.90,0000 0000 0000 0000 000000
2018-04-25 12:31:08,0.04,6.03,0.00,25.74,29.00,31.93,13.83,49.72,1019.06,2016.00,1716.97,1873.22,2118.00,599.81,591.64,45.95,0000 0000 0000 0000 000000
2018-04-25 12:36:09,0.04,6.03,0.00,25.71,29.02,31.96,13.84,49.85,1019.05,2016.00,1716.34,1873.01,2117.90,599.84,591.93,46.01,0000 0000 0000 0000 000000
2018-04-25 12:41:10,0.03,6.03,0.00,25.78,29.03,31.97,13.81,49.75,1019.06,2015.99,1716.01,1872.97,2117.14,599.85,591.75,46.06,0000 0000 0000 0000 000000
2018-04-25 12:46:11,0.08,6.04,0.00,25.70,29.05,32.00,13.92,49.83,1019.05,2015.99,1715.55,1872.32,2116.99,600.09,592.14,46.11,0000 0000 0000 0000 000000
2018-04-25 12:51:12,0.03,6.04,0.00,25.70,29.05,32.01,13.79,49.75,1019.03,2015.97,1715.02,1872.01,2116.66,600.10,592.12,46.16,0000 0000 0000 0000 000000
2018-04-25 12:56:14,0.00,6.04,0.00,25.73,29.07,32.04,13.85,49.73,1019.05,2015.86,1714.92,1871.98,2116.04,599.83,591.95,46.21,0000 0000 0000 0000 000000